Location: Unspecified
(0.0000°N, 0.0000°E)
Time: 23:24:27
(UTC+00:00)

Tiangong - Pass Details

Date: 20 February 2024
Orbit: 375 x 388 km, 41.5° (Epoch: 20 February)

Event Time Altitude Azimuth Distance (km) Brightness Sun altitude
Rises 19:42:55 0° 240° (WSW) 2,223 3.0 -21.9°
Reaches altitude 10° 19:45:05 10° 250° (WSW) 1,372 1.8 -22.4°
Enters shadow 19:47:30 31° 298° (WNW) 675 -0.5 -23.0°
